Bar Harbor, ME

7:18 AM EDT on April 20, 2018 (GMT -0400)
Hancock County-Bar Harbor

Weather History for KBHB - August, 2012

Change the Weather History Date:

Monday, August 6, 2012

  Actual Average Record
Temperature  
Mean Temperature 73 °F -  
Max Temperature 82 °F 77 °F 88 °F (1955)
Min Temperature 62 °F 56 °F 45 °F (1948)
Cooling Degree Days 8    
Growing Degree Days 23 (Base 50)    
Moisture  
Dew Point 63 °F    
Average Humidity 74    
Maximum Humidity 100    
Minimum Humidity 42    
Precipitation  
Precipitation 0.02 in - - ()
Sea Level Pressure  
Sea Level Pressure 29.89 in    
Wind  
Wind Speed 9 mph (West)    
Max Wind Speed 16 mph    
Max Gust Speed 21 mph    
Visibility 7 miles    
Events      
Averages and records for this station are not official NWS values.
T = Trace of Precipitation, MM = Missing Value Source: NWS Daily Summary

Daily Weather History Graph

Daily Weather History Graph

Search for Another Location

Airport or City:

Astronomy

Aug. 06, 2012 Rise Set
Actual Time 5:26 AM EDT 7:51 PM EDT
Civil Twilight 4:53 AM EDT 8:23 PM EDT
Nautical Twilight 4:13 AM EDT 9:04 PM EDT
Astronomical Twilight 3:27 AM EDT 9:49 PM EDT
Moon 9:42 PM EDT (8/6) 10:26 AM EDT (8/6)
Length of Visible Light 15h 29m
Length of Day
14h 24m
Waning Gibbous, 78% of the Moon is Illuminated
Aug 6
Waning Gibbous
Aug 9
Last Quarter
Aug 17
New
Aug 24
First Quarter
Aug 31
Full

Hourly Weather History & Observations

Time (EDT) Temp. Heat Index Dew Point Humidity Pressure Visibility Wind Dir Wind Speed Gust Speed Precip Events Conditions
12:15 AM 68.0 °F - 68.0 °F 100% 29.91 in 4.0 mi SSW 16.1 mph - N/A   Overcast
12:35 AM 69.8 °F - 69.8 °F 100% 29.90 in 8.0 mi SSW 15.0 mph 19.6 mph N/A   Overcast
12:55 AM 69.8 °F - 69.8 °F 100% 29.88 in 10.0 mi SSW 13.8 mph - N/A   Overcast
1:15 AM 69.8 °F - 69.8 °F 100% 29.88 in 10.0 mi SSW 12.7 mph - N/A   Overcast
1:35 AM 69.8 °F - 69.8 °F 100% 29.87 in 9.0 mi SSW 13.8 mph - N/A   Overcast
1:55 AM 69.8 °F - 68.0 °F 94% 29.87 in 4.0 mi SSW 12.7 mph 20.7 mph 0.02 in   Overcast
2:15 AM 69.8 °F - 69.8 °F 100% 29.86 in 6.0 mi SSW 10.4 mph - N/A   Overcast
2:35 AM 69.8 °F - 69.8 °F 100% 29.85 in 7.0 mi SSW 13.8 mph 18.4 mph N/A   Overcast
2:55 AM 69.8 °F - 69.8 °F 100% 29.85 in 2.0 mi SSW 11.5 mph 19.6 mph N/A   Overcast
3:15 AM 68.0 °F - 68.0 °F 100% 29.85 in 0.8 mi SSW 10.4 mph 16.1 mph N/A   Overcast
3:55 AM 68.0 °F - 68.0 °F 100% 29.85 in 0.5 mi South 11.5 mph - N/A   Overcast
4:15 AM 66.2 °F - 66.2 °F 100% 29.84 in 0.5 mi South 11.5 mph - N/A   Overcast
4:35 AM 66.2 °F - 66.2 °F 100% 29.84 in 0.8 mi SSW 8.1 mph - N/A   Overcast
4:55 AM 66.2 °F - 66.2 °F 100% 29.84 in 0.8 mi SSW 8.1 mph - N/A   Overcast
5:15 AM 66.2 °F - 66.2 °F 100% 29.85 in 1.0 mi SSW 4.6 mph - N/A   Overcast
5:35 AM 66.2 °F - 66.2 °F 100% 29.86 in 0.5 mi SSW 3.5 mph - N/A   Overcast
5:55 AM 68.0 °F - 68.0 °F 100% 29.87 in 0.2 mi SSW 3.5 mph - N/A   Overcast
6:15 AM 68.0 °F - 68.0 °F 100% 29.87 in 0.2 mi SSW 4.6 mph - N/A   Overcast
6:35 AM 68.0 °F - 66.2 °F 94% 29.88 in 0.5 mi South 3.5 mph - N/A   Overcast
7:15 AM 69.8 °F - 69.8 °F 100% 29.88 in 0.2 mi SSW 3.5 mph - N/A   Overcast
7:35 AM 69.8 °F - 68.0 °F 94% 29.89 in 0.2 mi SSW 3.5 mph - N/A   Overcast
7:55 AM 71.6 °F - 71.6 °F 100% 29.89 in 1.5 mi SW 4.6 mph - N/A   Overcast
8:15 AM 73.4 °F - 71.6 °F 94% 29.89 in 10.0 mi WSW 4.6 mph - N/A   Scattered Clouds
8:35 AM 75.2 °F - 71.6 °F 89% 29.89 in 10.0 mi SW 5.8 mph - N/A   Clear
8:55 AM 75.2 °F - 71.6 °F 89% 29.89 in 9.0 mi WSW 4.6 mph - N/A   Clear
9:15 AM 77.0 °F - 69.8 °F 78% 29.89 in 10.0 mi West 6.9 mph - N/A   Clear
9:35 AM 77.0 °F - 66.2 °F 69% 29.89 in 10.0 mi WNW 6.9 mph - N/A   Clear
9:55 AM 77.0 °F - 66.2 °F 69% 29.89 in 9.0 mi West 6.9 mph - N/A   Clear
10:15 AM 78.8 °F - 60.8 °F 54% 29.90 in 10.0 mi West 9.2 mph 17.3 mph N/A   Clear
11:15 AM 80.6 °F 81.1 °F 59.0 °F 48% 29.89 in 10.0 mi NW 11.5 mph 17.3 mph N/A   Clear
11:35 AM 78.8 °F - 59.0 °F 51% 29.89 in 10.0 mi West 10.4 mph - N/A   Clear
11:55 AM 80.6 °F 81.1 °F 59.0 °F 48% 29.89 in 10.0 mi WNW 6.9 mph - N/A   Clear
12:15 PM 80.6 °F 81.1 °F 59.0 °F 48% 29.89 in 0.5 mi WNW 10.4 mph - N/A   Unknown
12:35 PM 80.6 °F 80.8 °F 57.2 °F 45% 29.89 in 10.0 mi West 10.4 mph 17.3 mph N/A   Clear
12:55 PM 80.6 °F 80.8 °F 57.2 °F 45% 29.88 in 10.0 mi WNW 8.1 mph - N/A   Clear
1:35 PM 80.6 °F 80.8 °F 57.2 °F 45% 29.89 in 10.0 mi WNW 6.9 mph 16.1 mph N/A   Clear
1:55 PM 80.6 °F 80.8 °F 57.2 °F 45% 29.89 in 7.0 mi WNW 8.1 mph - N/A   Clear
2:15 PM 80.6 °F 80.8 °F 57.2 °F 45% 29.89 in 10.0 mi NNW 10.4 mph 16.1 mph N/A   Partly Cloudy
2:35 PM 80.6 °F 80.8 °F 57.2 °F 45% 29.88 in 10.0 mi WNW 6.9 mph - N/A   Mostly Cloudy
2:55 PM 80.6 °F 80.8 °F 57.2 °F 45% 29.88 in 10.0 mi West 5.8 mph 16.1 mph N/A   Scattered Clouds
4:15 PM 80.6 °F 80.8 °F 57.2 °F 45% 29.87 in 10.0 mi WNW 4.6 mph - N/A   Partly Cloudy
4:35 PM 80.6 °F 80.8 °F 57.2 °F 45% 29.87 in 10.0 mi WNW 5.8 mph - N/A   Scattered Clouds
4:56 PM 82.4 °F 82.0 °F 57.2 °F 42% 29.87 in 10.0 mi West 6.9 mph - N/A   Scattered Clouds
5:15 PM 80.6 °F 80.8 °F 57.2 °F 45% 29.87 in 10.0 mi WNW 6.9 mph - N/A   Clear
6:15 PM 78.8 °F - 57.2 °F 47% 29.88 in 10.0 mi NW 9.2 mph - N/A   Partly Cloudy
6:35 PM 78.8 °F - 57.2 °F 47% 29.88 in 10.0 mi NW 6.9 mph - N/A   Clear
6:55 PM 77.0 °F - 55.4 °F 47% 29.88 in 10.0 mi WNW 4.6 mph - N/A   Clear
7:35 PM 73.4 °F - 57.2 °F 57% 29.90 in 10.0 mi NW 3.5 mph - N/A   Clear
7:55 PM 73.4 °F - 57.2 °F 57% 29.90 in 10.0 mi WNW 3.5 mph - N/A   Clear
8:15 PM 71.6 °F - 57.2 °F 60% 29.91 in 10.0 mi WNW 3.5 mph - N/A   Clear
8:35 PM 69.8 °F - 57.2 °F 64% 29.92 in 10.0 mi WNW 4.6 mph - N/A   Clear
9:15 PM 69.8 °F - 57.2 °F 64% 29.93 in 10.0 mi NW 3.5 mph - N/A   Clear
9:35 PM 68.0 °F - 57.2 °F 68% 29.94 in 10.0 mi NW 3.5 mph - N/A   Clear
9:55 PM 66.2 °F - 57.2 °F 73% 29.95 in 10.0 mi NNW 3.5 mph - N/A   Scattered Clouds
10:15 PM 66.2 °F - 57.2 °F 73% 29.95 in 10.0 mi NNW 6.9 mph - N/A   Scattered Clouds
10:35 PM 66.2 °F - 57.2 °F 73% 29.95 in 10.0 mi NW 5.8 mph - N/A   Mostly Cloudy
10:55 PM 66.2 °F - 57.2 °F 73% 29.95 in 10.0 mi NW 4.6 mph - N/A   Overcast
11:15 PM 66.2 °F - 57.2 °F 73% 29.95 in 10.0 mi NW 3.5 mph - N/A   Overcast
11:35 PM 64.4 °F - 57.2 °F 77% 29.95 in 10.0 mi Calm Calm - N/A   Overcast
11:55 PM 62.6 °F - 57.2 °F 82% 29.95 in 10.0 mi Calm Calm - N/A   Mostly Cloudy